CZ-6A DEB, 54630

Orbit data source: Space-Track

CZ-6A DEB, 54630 is space debris in SSO originally from a launch on Fri, 11 Nov 2022 UTC launched from the Taiyaun Space Center, China (TSC). Debris objects in space refer to the collection of defunct objects orbiting the Earth. Examples of debris include non-operational satellites, rocket bodies, and fragments generated from explosions, collisions, or faulty payload assembly.

Loading next visibility...
Identifier
54630, 2022-151PG
Orbit
SSO
Country
Flag of CNCN / PRC
Related business
Manufacturer
SAST
Mission
Spacecraft
Bus & Motor
Unknown
Mass
Unknown
Launch date (UTC)
2022-11-11 (4 years ago)
Launch vehicle
Unknown
Launch site
Taiyaun Space Center, China (TSC)
Object type
Payload
Rocket body
Debris
Shape & HBR
Unknown shape, 0.1 m
Radar Cross Section
Medium (>0.1 m² and <1 m²)

Expand to show TLE details & history
Last TLE update: 1 day ago

TLE from 1 day ago
0 CZ-6A DEB
1 54630U 22151PG  26264.15820950  .00008782  00000-0  11051-2 0  9994
2 54630  98.6241 342.4210 0056035 324.9653  34.7876 14.81202304203642
Epoch: 2026-09-21T03:47Z
TLE epoch observation values (Epoch: 2026-09-21T03:47:49.300Z)
Latitude
-0.00004°
Longitude
-74.57647°
Altitude
596.367 km
Speed
7.579 km/s
True Right ascension
22h 49m 41s
True Declination
0° 00' 00"
Sunlit
Object was in full shadow at epoch
Visualization orbit readout
Latitude
Unknown
Longitude
Unknown
Altitude
Unknown
Speed
Unknown
Apparent Right ascension
Unknown
Apparent Declination
Unknown
Sunlit
N/A
Visualization observer readout
Local Sidereal Time
00:05:55
Azimuth
Unknown
Elevation
Unknown
Doppler factor
Unknown
Orbital elements
Apogee altitude
661.833 km
Perigee altitude
583.376 km
Semi-major axis
7,000.742 km
Eccentricity
0.0056
Inclination
98.6241°
RAAN
342.421°
Arg. of periapsis
324.9653°
True anomaly
35.15607°
Mean anomaly
34.7876°
Eccentric anomaly
34.97162°
Mean motion
3.70533 °/min
Orbital period
97.16 mins
BSTAR
0.0011051
Loading maneuver chart data...
Computing Atmospheric mass density...

Documentation

Showing up to 5 results
|